C/2007 U1 (LINEAR)
Epoch 2008 Aug. 2.0 TT = JDT 2454680.5  
T 2008 Aug. 7.05240 TT                                  Nakano
q   3.3291920            (2000.0)            P               Q
z  -0.0004376      Peri.    0.92809     +0.65361888     +0.69914619
 +/-0.0000008      Node    50.04329     +0.69191380     -0.70716644
e   1.0014569      Incl.  157.78696     +0.30665559     +0.10540513
From 781 observations 2007 Oct. 19-2009 Aug. 26, mean residual 0".63.
   (1/a)org.= +0.000151, (1/a)fut.= +0.000048 (+/-0.000001), Q= 8.
   The comet will pass 2.08 AU from Jupiter on 2009 Nov. 14 UT.
Residuals in seconds of arc 
2007/                     080813 900  0.6+  0.6-    081103 071  0.2+  0.9+  
071019 704  0.5+  0.5+    080813 900  0.5+  0.6-    081104 H45  0.2-  0.3+  
071019 704  0.0   1.1+    080820 118  0.1-  0.3-    081104 H45  0.5-  0.3+  
071019 704  0.3+  0.2+    080820 118  0.2+  0.1-    081104 H45  0.5-  0.1-  
071019 704  0.2+  1.2+    080820 118  0.0   0.5+    081104 H45  0.6-  0.2-  
071019 704  0.8-  0.1+    080821 349  0.1+  0.5-    081104 H45  0.1-  0.3+  
071020 H55  0.0   0.2-    080821 349  0.1+  0.4-    081104 H45  0.6-  0.5+  
071020 H55  0.1+  0.0     080828 215  0.5+  1.0-    081104 H45  0.4-  0.2+  
071020 H55  0.9-  0.7+    080828 215  0.5+  0.8-    081104 071  1.3-  0.5-  
071020 H55  0.2-  0.0     080828 215  0.3+  0.7-    081104 071  0.4+  0.5+  
071020 704  0.1-  0.8+    080828 H45  0.3+  0.2-    081104 071  0.3+  0.8+  
071020 704  0.4-  0.5+    080828 H45  0.5+  0.0     081104 071  0.2+  0.6+  
071020 704  0.2-  0.1+    080828 H45  0.5+  0.0     081104 071  0.6+  0.6+  
071020 413  0.3-  0.2+    080828 H45  0.3+  0.1-    081104 071  0.2+  0.7+  
071020 413  0.1-  0.2+    080828 H45  0.5+  0.0     081104 071  0.2+  0.7+  
071021 473  0.2+  0.3+    080828 H45  0.5+  0.1-    081104 071  0.3+  0.4+  
071021 473  0.0   0.1+    080831 213  0.3+  0.4-    081104 071  0.4+  0.6+  
071021 473  0.0   0.0     080831 213  0.4+  0.4-    081104 071  0.2+  0.7+  
071021 204  0.2+  0.3-    080901 349  0.1-  0.4-    081104 071  0.4+  0.7+  
071021 B33  0.2+  0.9+    080901 349  0.3-  0.6-    081104 071  0.4+  0.7+  
071021 B33 (2.7-  0.3-)   080904 B59  0.1-  0.2-    081104 071  0.3+  0.6+  
071021 850  0.8-  0.4+    080907 349  0.0   0.3+    081104 071  0.9+  0.2+  
071021 850  0.6-  0.7+    080907 349  0.1+  0.2+    081104 071  0.3+  0.5+  
071021 850  0.2-  1.8-    080907 349  0.0   0.0     081104 071  0.1+  0.8+  
071021 704  0.1-  1.0+    080908 367  0.3-  0.3-    081106 B74  0.9-  0.3-  
071021 704  0.3-  1.8+    080908 367  0.5+  1.0-    081106 B74  1.2-  0.2-  
071021 704  1.0+  1.1+    080908 367  0.3+  0.4-    081106 B74  1.1-  0.3-  
071021 701  0.6-  0.1-    080908 355  0.3+  0.1-    081107 J47  0.7-  0.7-  
071021 704  1.4-  0.3+    080908 900  0.5+  0.5-    081107 J47  0.4+  0.4+  
071021 701  0.6+  0.1+    080908 355  0.8+  0.2-    081107 J47  0.5+  0.4+  
071021 701  0.6-  0.2+    080908 355  0.7+  0.5-    081107 J47  0.3+  0.7+  
071021 413  0.2-  0.4+    080908 355  0.3+  0.8-    081108 204  0.5-  0.1-  
071021 413  0.4-  0.5+    080908 900  0.4+  0.4-    081108 204  0.4-  0.1-  
071021 413  0.5-  0.5+    080909 B59  0.7+  0.2+    081109 J24  1.0+  0.8+  
071021 413  0.5-  0.5+    080909 071  0.2-  0.3+    081109 J24 (3.1+  3.9+) 
071021 413  0.5-  0.7+    080909 071  0.6+  0.3+    081113 349  0.3-  0.4-  
071022 A80  0.3-  0.0     080909 071  2.0+  0.9-    081113 349  0.5-  0.4-  
071022 A80  0.3-  0.6-    080909 071  0.4-  0.4-    081113 349  0.4-  0.6-  
071022 A80  0.8-  0.0     080909 071  0.1+  0.9+    081113 J97  0.2-  0.3+  
071022 A80  0.2-  0.8+    080909 071  1.8+  0.8+    081113 J97  0.2-  0.5+  
071022 204  0.2-  0.2-    080909 071  0.0   0.5+    081113 J97  0.3-  0.5+  
071022 204  0.4-  0.1-    080909 071  0.8+  0.9+    081114 900  0.4-  0.3-  
071022 H06  0.0   0.3-    080909 D88  1.0+  0.3-    081114 900  0.4-  0.2+  
071022 H55  0.2-  0.2+    080909 D88  1.1+  0.4+    081114 213  0.9-  0.1+  
071022 H06  1.1-  0.4+    080909 D88  0.8+  0.4+    081114 213  1.0-  0.1+  
071022 704  0.2-  0.6+    080911 A77  0.2+  0.2-    081114 213  1.2-  0.0   
071022 H55  0.2-  0.2+    080911 A77  0.5+  0.4-    081114 B20  0.4-  0.5+  
071022 H55  0.2-  0.1+    080911 A77  0.3+  0.3-    081114 B20  0.7-  0.6+  
071022 704  0.2-  0.2+    080913 118  0.1+  0.2-    081114 B20  0.7-  0.1-  
071022 704  0.3-  0.4+    080913 118  0.6+  0.1-    081114 212  1.5-  0.4+  
071022 704  1.3-  0.7-    080913 118  0.5+  0.3-    081114 212  0.7-  1.0+  
071022 D35  0.3+  0.1-    080917 204  0.1+  0.2-    081114 212  0.8+  0.9+  
071022 D35  0.1+  0.1-    080917 204  0.1+  0.0     081115 A77  0.7-  0.4-  
071022 D21  0.8-  0.1-    080922 J47  0.3+  0.3-    081115 A77  0.6-  0.2-  
071022 D21  0.0   1.5+    080922 J47  0.1+  0.3-    081115 A77  0.5-  0.0   
071022 D35  0.0   0.2+    080922 J47  0.2+  0.4-    081115 939  0.8-  0.3-  
071022 D21  0.5-  0.5+    080922 900  0.4+  0.3-    081115 939  0.9-  0.3-  
071023 704  0.3+  1.0+    080922 900  0.3+  0.3-    081115 939  1.0-  0.4-  
071023 704  0.8-  1.1+    080922 352  0.2+  0.7-    081115 212 (0.3-  3.8-) 
071023 704  0.4-  0.1+    080922 352  0.4+  0.5-    081115 212  1.8-  0.0   
071023 349  0.1-  0.1-    080922 352  0.4+  0.0     081115 212  0.2+  0.3+  
071023 349  0.2+  0.2+    080922 349  0.3+  0.3-    081115 232  0.9-  0.5+  
071024 704  0.2-  0.1+    080922 349  0.3+  0.2-    081115 232  0.6-  0.2-  
071024 704  0.6-  1.0+    080922 349  0.2+  0.2-    081115 232  1.1-  0.0   
071024 704  0.7+  0.9+    080923 H45  0.2-  0.1+    081117 J53  0.4-  0.3-  
071024 704  0.9-  0.3+    080923 H45  0.3+  0.1+    081117 J53  0.2-  0.0   
071028 213  0.2+  0.8-    080923 H45  0.3+  0.0     081117 J53  0.2-  0.3-  
071028 213  0.0   0.5-    080923 H45  0.2+  0.1-    081118 H45  0.3-  0.3+  
071028 213  0.5-  0.1+    080923 H45  0.7+  0.0     081118 H45  0.0   0.4+  
071102 850  0.7+  0.8-    080923 H45  0.1+  0.1-    081118 H45  0.0   0.2+  
071102 850  0.8-  0.1+    080927 H45  0.1+  0.0     081118 H45  0.1-  0.3+  
071102 673  0.2-  0.3+    080927 H45  0.3+  0.0     081118 H45  0.0   0.2+  
071102 673  0.4-  0.3+    080927 H45  0.2+  0.1+    081118 H45  0.1-  0.4+  
071102 673  0.5-  0.4+    080927 H45  0.1+  0.1+    081118 900  0.3-  0.2-  
071102 673  0.3-  0.5+    080927 H45  0.2+  0.1+    081118 900  0.4-  0.1-  
071108 130  0.3-  0.3+    080927 H45  0.2+  0.2-    081119 703 (1.5+  2.3-) 
071108 130  0.0   0.2+    080927 H06  0.4-  0.2+    081119 703 (3.3+  3.4-) 
071108 130  0.0   0.5-    080927 H06  0.4+  0.5+    081119 703  0.1+  1.7-  
071108 130  0.3+  0.1-    080928 J51  0.2+  0.2-    081119 703 (1.1+  2.4-) 
071110 147  0.2+  1.0+    080928 J51  0.1-  0.4-    081120 J53  0.7-  0.4-  
071110 J47  0.4-  0.5+    080928 J52  0.8+  0.2-    081120 J53  0.8-  0.2-  
071110 147  0.1+  0.2+    080928 J51  0.8-  0.8-    081120 J53  0.6-  0.2-  
071110 J47  0.0   0.6+    080928 J52  0.9+  0.3-    081122 704  0.1+  0.2-  
071110 J47  0.1-  1.2-    080928 J52  1.0+  0.1+    081122 704  0.8-  0.5-  
071112 355  0.3+  0.3+    080928 B37  0.3-  0.0     081122 704  0.5-  0.8-  
071112 355  0.2-  0.6+    080928 B37  0.4-  0.1-    081122 704  0.8-  1.0-  
071112 355  0.3-  0.3-    080928 B37  0.5-  0.1+    081122 704  0.7-  1.5-  
071112 355  0.3-  0.2-    080928 B37  0.6-  0.1+    081122 939  0.9-  0.2-  
071115 349  0.4-  0.7+    080929 J47  0.3+  0.2+    081122 939  0.7-  0.3-  
071115 349  0.4-  0.6+    080929 J47  0.4+  0.2+    081122 939  0.6-  0.6-  
071117 204  0.2-  0.0     080929 J47  0.6+  0.2+    081122 235  0.6-  0.6-  
071117 204  0.5-  0.1+    080929 J47  0.4+  0.3+    081123 367  1.0-  0.6-  
071117 349  0.6-  1.5+    080929 118  0.2+  0.2-    081123 367  0.6-  1.0-  
071117 349  0.7-  1.2+    080929 118  0.6+  0.1+    081123 367  0.5-  0.3-  
071118 349  0.7-  0.8+    080929 118  0.3+  0.2-    081123 629  0.1-  0.5+  
071118 349  0.6-  0.8+    080929 118  0.2+  0.0     081123 629  0.4-  0.4+  
071118 349  0.8-  0.8+    080929 H45  0.4+  0.1+    081123 J53  0.5-  0.6-  
071120 585  0.2+  0.6+    080929 H45  0.4+  0.1-    081123 J53  0.4-  0.4-  
071120 585  0.2-  0.4+    080929 H45  0.3+  0.0     081123 212 (2.1+  0.7+) 
071120 585  0.0   0.2-    080929 H45  0.3+  0.1+    081123 J53  0.3-  0.4-  
071124 213  0.7+  0.8+    080929 H45  0.2+  0.3+    081123 212  0.6-  0.4-  
071124 213  0.2+  0.1-    081001 900  0.3+  0.1-    081123 212  0.4-  0.0   
071125 349  0.0   0.3-    081001 900  0.3+  0.1-    081124 J47  0.0   0.9+  
071125 349  0.4-  0.2-    081002 J53  0.1-  0.2-    081124 J47  0.2+  0.9+  
071125 349  0.5-  0.4-    081002 J53  0.0   0.3-    081124 J47  0.0   0.5+  
071130 585  0.7-  1.0+    081002 J53  0.3+  0.1-    081124 J47  0.3+  0.9+  
071130 585  0.5+  0.6+    081003 704  0.6+  0.7-    081124 A77  0.3-  0.3-  
071130 585  0.3-  0.1+    081003 704  0.5+  2.0-    081124 A77  0.4-  0.2-  
071201 J47  0.0   0.1-    081003 704  0.0   0.7-    081125 H47  0.6+  0.9+  
071201 213  0.2-  0.5-    081003 704  0.2+  1.5-    081125 H47  0.2-  0.4+  
071201 J47  0.1-  0.3+    081003 704  0.4-  1.7-    081125 H47  0.2-  0.0   
071201 213  0.0   0.8-    081004 071  0.4+  0.9+    081125 203  0.3-  0.5-  
071201 J47  0.2-  0.4+    081004 071  0.2+  0.7+    081125 203  0.7-  0.2-  
071201 213  0.4+  0.1+    081004 071  0.3+  0.7+    081127 J97  0.5+  0.4+  
071203 673  0.4-  0.6+    081004 071  0.2+  0.9+    081127 J97  0.4-  0.1+  
071203 673  0.3-  0.6+    081004 071  0.1+  0.7+    081127 J97  0.1+  0.3+  
071203 673  0.7-  0.6+    081004 071  0.1+  0.7+    081127 J53  0.6-  0.3-  
071203 673  0.3-  0.9+    081004 071  0.3+  0.8+    081127 J53  0.3-  0.2-  
071203 J46  0.1+  0.6+    081004 071  0.2+  0.9+    081127 J53  0.7-  0.1-  
071203 J46  0.1+  0.2+    081004 071  0.3+  0.8+    081129 939  0.6-  0.6-  
071204 415  0.0   0.2+    081004 071  0.2+  0.7+    081129 939  0.6-  0.4-  
071204 415  0.2-  0.2+    081004 235  0.0   0.4-    081129 939  0.0   0.1+  
071214 704  0.7+  1.7+    081004 A71  0.1-  0.7-    081130 D88  0.3+  0.4+  
071214 704  0.9+  1.3+    081004 A71  0.1+  0.3-    081130 D88  0.2-  0.8-  
071214 704  0.5+  0.7+    081004 A71  0.0   0.4-    081130 D88  0.1+  0.4-  
071214 704 (3.3-  0.3+)   081005 J53  0.1+  0.5-    081130 379  0.1+  0.0   
071214 704  1.0+  1.7+    081005 J53  0.2-  0.5-    081130 379  0.1+  0.2+  
071214 J51  0.6+  0.4+    081005 J53  0.2-  0.6-    081130 379  0.1-  0.2+  
071215 J51  0.5+  0.6+    081005 J20  0.9-  2.0+    081130 379  0.4-  0.2-  
071215 J51  1.5+  1.1+    081005 J20 (0.1-  2.5-)   081130 379  0.5-  0.4-  
071215 J47  0.5+  0.1+    081005 J20 (1.0+  2.1+)   081130 212  0.9-  0.2+  
071215 J47  0.3+  0.2+    081005 B49  0.1+  0.4-    081130 212  0.8-  0.0   
071215 J47  0.0   0.6+    081005 B49  0.3+  0.2-    081130 212  0.7-  0.3-  
071218 349  0.5+  0.1-    081005 B49  0.2+  0.2-    081201 900  0.4-  0.2-  
071218 349  0.4+  0.0     081006 J20  1.3+  1.9-    081201 900  0.2-  0.0   
071218 349  0.4+  0.1-    081006 J20 (6.3+  1.2-)   081202 G96  0.3-  1.7-  
071220 703  1.2+  0.1-    081006 J20 (0.1+  3.1+)   081202 G96  0.3-  1.7-  
071220 703  1.5-  0.3-    081008 J51  0.0   0.2-    081202 G96  0.4-  1.9-  
071220 703 (2.4+  0.6-)   081008 J51  0.1+  0.2-    081202 G96  0.1+  2.0-  
071220 703  0.3+  0.5-    081008 J51  0.1+  0.3-    081203 355  0.4-  0.1-  
071220 703  0.1+  0.2-    081010 J59  0.3+  0.0     081203 355  0.8-  0.4-  
071220 703  0.3+  0.1-    081010 J59  0.0   0.3-    081203 355  0.5-  0.7-  
071220 703  0.5-  0.4-    081010 J59  0.3+  0.2-    081204 704  0.1+  0.1-  
071220 703  0.9-  0.6-    081010 G96 (0.1+  2.7-)   081204 704  0.5-  0.2-  
071220 703  0.9+  0.7-    081010 G96 (0.8+  3.4-)   081204 704  0.5-  0.9-  
071220 703 (2.9+  0.8-)   081010 G96 (1.1+  3.0-)   081204 704  1.1-  1.0-  
071220 703  0.6+  0.0     081010 G96 (1.2+  3.1-)   081204 704  1.2-  1.6-  
071226 J46  0.2-  0.3+    081010 629  0.5+  0.3+    081204 J24  1.2-  0.3+  
071227 B49  0.1+  0.1-    081010 629  0.5-  0.0     081204 J24  0.9-  0.4-  
071227 B49  0.5+  0.2-    081011 232  0.4+  0.6-    081204 J24  0.4-  0.3+  
071228 704  0.4+  0.3+    081011 213  0.1+  0.9+    081205 H47  0.2-  0.8+  
071228 704  0.5+  0.1+    081011 232  0.1+  0.5-    081205 H47  0.7-  0.1-  
071228 704 (2.2+  0.1-)   081011 213  0.2+  0.5+    081205 H47  0.3-  0.9+  
071228 704  0.9+  0.0     081011 213  0.4+  0.3+    081207 704  0.3-  0.3-  
071228 704  1.2+  0.5+    081011 232  0.4+  0.3-    081207 704  0.4-  0.5-  
071229 215  0.2-  0.1-    081011 J24  1.0-  0.3+    081207 704  0.5-  1.1-  
071229 215  0.1+  0.3-    081011 J24  0.9-  0.6+    081207 704  0.3-  0.8-  
071229 215  0.1+  0.1-    081011 J24  1.4-  0.4+    081207 704  0.2-  0.9-  
071230 D88  0.6-  0.5+    081011 900  0.1-  0.1-    081210 B74  0.6-  0.2-  
071230 D88  0.6+  0.2-    081011 900  0.0   0.2-    081210 B74  1.1-  0.7-  
071230 D88  0.2-  0.6-    081012 J47  0.2+  0.2-    081213 J24  1.6-  1.5-  
071230 B49  0.2+  0.6-    081012 J47  0.0   0.2+    081213 J24  1.2-  0.2+  
071230 B49  0.2+  0.0     081012 J47  0.1+  0.2-    081213 J24  1.2-  0.2-  
071230 170  0.4-  0.3-    081012 J47  0.2-  0.2-    081214 349  0.6-  0.0   
071230 170  0.0   0.1-    081013 J47  0.0   0.5+    081214 349  0.5-  0.1-  
071230 170  0.1+  0.2-    081013 J47  0.0   0.4+    081214 349  0.5-  0.0   
071231 415  0.4-  0.2-    081013 J47  0.6-  0.0     081215 379  0.8-  0.2+  
071231 415  0.3+  0.5-    081013 J47  0.4+  0.4+    081215 379  1.2-  0.1+  
071231 355  0.4+  0.3-    081013 585  0.2-  0.0     081215 379  0.6-  0.2+  
071231 355  0.5+  0.6-    081013 585  1.3+  1.0+    081216 D81  1.2-  0.7-  
071231 355  1.2+  0.7-    081013 585  0.2+  0.1+    081216 D81  1.6-  0.8-  
071231 355  0.9+  0.1+    081013 585  0.3+  0.3-    081216 D81  1.0-  0.6-  
2008/                     081017 349  0.2+  0.0     081216 D81  0.1-  0.3-  
080101 213  0.3-  0.2+    081017 349  0.0   0.1-    081218 939  0.5-  0.7-  
080101 213  0.0   0.6-    081017 349  0.1-  0.2-    081218 939  0.5-  0.3-  
080101 213  0.2-  0.3+    081018 900  0.1-  0.1-    081218 939  0.4-  0.1-  
080101 J51  0.0   0.2-    081018 900  0.1-  0.1+    081219 J47  0.2-  0.6+  
080101 J51  0.0   0.1+    081020 629  0.0   0.6+    081219 J47  0.3-  0.1+  
080101 J51  0.1-  0.5+    081020 629  0.1-  0.7+    081219 J47  0.2+  0.6+  
080102 349  0.0   0.3+    081020 B73  1.1-  0.1-    081219 J47  0.6+  0.4+  
080102 349  0.2+  0.5+    081021 J47  0.5+  0.3+    081220 900  0.3-  0.1+  
080102 349  0.1+  0.3+    081021 J47  0.3+  0.1+    081220 900  0.3-  0.1-  
080103 H47  0.8-  0.1+    081021 J47  0.5+  0.4+    081220 J53  0.6-  0.3-  
080103 H47  0.5-  0.3-    081021 J47  0.3+  0.5+    081220 J53  0.6-  0.0   
080103 400 (2.1-  0.2+)   081023 J47  0.3+  0.9+    081220 939  0.2-  0.5-  
080103 400  2.0-  0.3+    081023 J47  0.2+  0.4+    081220 J53  0.7-  0.1+  
080103 400 (2.4-  0.4+)   081023 J47  0.1-  0.6+    081220 939  0.6-  0.4-  
080106 900  2.0+  1.1-    081024 703  0.3-  0.4-    081220 939  1.1-  0.8-  
080106 900  0.7+  0.0     081024 703 (1.5+  3.0-)   081221 939  0.5-  0.3-  
080112 939  0.6+  0.2-    081024 703  0.3-  0.8-    081221 939  0.4-  0.3-  
080112 939  0.4+  0.4-    081024 703 (0.9+  2.9-)   081221 939  0.2-  0.3-  
080112 939  0.3+  0.4-    081024 B30 (3.3-  0.3-)   081221 945  1.3-  1.3-  
080114 349  0.8+  0.5-    081024 B30 (4.0-  0.3+)   081221 945  0.0   0.8-  
080114 349  0.8+  0.5-    081024 B30 (4.7-  1.4-)   081221 945  0.5+  0.4-  
080114 349  0.8+  0.5-    081025 J24  0.5-  0.3+    081221 945  0.6+  0.0   
080115 H45  0.4-  0.0     081025 J24  1.1-  0.4+    081221 945 (2.3-  2.3-) 
080115 H45  0.5-  0.0     081025 J24  0.6-  0.3+    081222 132  0.9-  0.0   
080115 H45  0.4-  0.1-    081025 H47  0.0   0.8+    081222 132  1.1-  0.4-  
080115 H45  0.8-  0.1+    081025 H47  0.0   0.6+    081222 132  1.2-  0.4-  
080115 H45  0.5-  0.1-    081025 H47  0.4+  0.3+    081223 J53  0.2-  0.2-  
080115 H45  0.6-  0.1-    081025 048  0.5+  0.1-    081223 J53  0.4-  0.1+  
080119 349  1.1+  0.7-    081025 048  0.5+  0.2+    081223 J53  0.8-  0.2-  
080119 349  1.2+  0.4-    081025 048  1.2+  0.8+    081226 071  1.9-  1.8+  
080119 349  1.2+  0.5-    081025 048  0.7+  0.7+    081226 071 (4.8-  0.1+) 
080119 J35  0.6+  0.1+    081025 048  1.1+  0.7+    081226 071  0.3+  1.1-  
080119 J35  0.3+  0.8+    081025 215  0.1+  0.2-    081226 071 (0.7-  3.5-) 
080119 J35  0.5+  0.0     081025 215  0.0   0.1-    081226 071 (0.5-  3.3-) 
080119 B30 (6.3+  5.2-)   081025 215  0.1+  0.1-    081227 D88  0.3-  0.5-  
080119 B30 (5.5+  4.5-)   081025 461  0.0   0.8+    081227 D88  0.4+  0.1-  
080119 B30 (3.3+  1.9+)   081025 461  0.0   0.7+    081227 D88  0.1+  0.0   
080123 204  0.3-  0.1-    081025 461  0.3-  0.6+    081228 349  0.0   0.3-  
080123 204  0.2-  0.3-    081025 461  0.1+  0.7+    081228 349  0.1+  0.1-  
080126 170  0.1+  0.5-    081025 461  0.1+  0.7+    081228 349  0.2-  0.4-  
080126 170  0.0   0.5-    081025 461  0.1-  0.7+    081230 235  0.2-  0.8-  
080126 170  0.2-  0.2-    081025 461  0.1-  0.7+    2009/                   
080126 170  0.1-  0.4-    081025 461  0.2+  0.7+    090101 349  0.4-  0.3-  
080126 170  0.1-  0.1-    081025 461  0.1+  0.8+    090101 349  0.4-  0.1-  
080127 D88  0.3-  0.1-    081026 232  0.6-  0.1+    090101 349  0.5-  0.2-  
080127 D88  0.1+  0.1-    081026 232  0.5-  0.1+    090101 204  0.3-  0.1-  
080127 D88  0.3+  0.3-    081026 232  0.3-  0.0     090101 204  0.6-  0.1+  
080131 A77  0.8-  0.2-    081026 H45  0.4-  0.1+    090112 D88  0.1-  0.0   
080131 A77  0.7-  0.1-    081026 H45  0.3-  0.1+    090112 D88  1.2-  0.1-  
080131 A77  0.5-  0.2-    081026 H45  0.5-  0.0     090112 D88  1.1-  0.9-  
080202 204  0.4-  0.2+    081026 H45  0.0   0.2+    090112 J28  0.1+  0.6+  
080203 703  1.6+  0.5-    081026 H45  0.1-  0.3+    090112 J28  0.3+  0.5+  
080203 703  1.3+  0.6-    081026 H45  0.2-  0.2-    090117 939  0.2+  0.6-  
080203 703 (2.1+  0.5-)   081026 939  0.1-  0.4-    090117 939  0.2+  0.4-  
080203 703  2.0+  0.9-    081026 939  0.1+  0.5-    090117 939  0.3+  0.4-  
080205 118  0.5-  0.4-    081026 939  0.1+  0.6-    090121 204  0.2+  0.2+  
080205 118  0.6-  0.1-    081027 H45  0.1-  0.1-    090125 349  0.8+  0.1+  
080205 118  0.2+  0.2-    081027 H45  0.1-  0.1-    090125 349  0.5+  0.3+  
080205 118  0.4-  0.1-    081027 H45  0.3-  0.1-    090125 B26  0.1+  0.0   
080208 J96  0.5-  0.1-    081027 H45  0.1-  0.2+    090221 349  1.0+  0.7-  
080208 J96  0.2-  0.2-    081027 H45  0.1+  0.0     090221 349  1.9+  0.2+  
080208 J96  0.1-  0.6-    081027 H45  0.4-  0.2-    090228 215  0.5+  1.2-  
080210 D88  0.6+  0.5+    081027 J47  0.1-  0.1+    090716 204  1.0+  0.9+  
080210 D88  0.0   0.4-    081027 J47  0.4-  0.2-    090716 204  1.4+  1.8+  
080210 945  1.5-  0.3+    081027 J47  0.1-  0.2+    090721 215  1.3+  1.4+  
080210 945  1.5-  0.6+    081028 704  0.6+  0.5-    090721 215  1.6+  1.7+  
080210 945  1.1-  0.2-    081028 704  0.3-  0.2-    090721 215  1.8+  1.9+  
080211 945  2.0-  0.0     081028 704  0.0   0.2-    090726 349  1.1+  1.1+  
080211 945  0.1-  0.3+    081028 704  0.2-  0.2-    090726 349  0.1+  0.1+  
080211 945  2.0+  0.3+    081028 704  0.3-  2.0-    090730 J10  0.3+  1.5+  
080217 349  0.2+  1.7-    081028 C42  0.0   1.9-    090730 J10 (0.9+  2.6+) 
080217 349  0.1+  1.9-    081028 C42  1.9+  0.6+    090730 J10 (1.8-  5.1-) 
080223 D88  0.0   0.7+    081028 C42 (0.3-  4.0-)   090730 H06  1.2+  0.0   
080223 D88  0.2+  0.6+    081028 C42  1.7-  1.3-    090730 H06  0.5+  0.9-  
080224 215  0.0   0.3-    081030 704  1.0+  1.1-    090730 H06  0.2+  1.7-  
080224 215  0.1-  0.3-    081030 704  0.9+  1.3-    090731 703  1.2+  1.7-  
080224 215  0.1-  0.2-    081030 704  0.5+  0.6-    090731 703  0.7+  0.1-  
080229 704  1.6+  1.0-    081030 704  0.0   1.7-    090731 703 (2.1+  0.4-) 
080229 704  0.6+  0.8-    081030 704 (0.3+  2.8-)   090731 703  0.5+  1.2-  
080229 704  0.1+  0.3+    081030 367  0.0   0.1-    090804 900 (2.1+  0.0 ) 
080229 704  0.1+  0.2-    081030 367  0.2+  0.3-    090804 900  1.1+  1.9+  
080229 704  0.2-  0.1+    081030 367  0.1-  0.5-    090804 204  1.4+  1.9+  
080302 204  0.2-  0.0     081031 900  0.2-  0.0     090805 204  1.6+  1.8+  
080302 204  0.0   0.3-    081031 900  0.1+  0.2+    090812 A77  1.8+  1.5+  
080308 071  0.6-  0.2-    081031 349  0.3-  0.5-    090812 A77  1.5+  1.0+  
080308 071  1.1+  0.7-    081031 349  0.4-  0.6-    090812 A77  1.8+  1.4+  
080308 071  0.4-  0.1+    081031 349  0.5-  0.4-    090815 A71  1.5+  1.9+  
080308 071  0.8-  0.2-    081101 B30 (3.5-  1.0-)   090815 A71 (1.7+  2.7+) 
080309 704  1.6+  1.4-    081101 B30 (2.7-  0.9-)   090817 900  0.3+  0.3+  
080309 704  0.5-  0.6+    081101 B30 (2.8-  0.8-)   090817 900  0.6+  1.8+  
080309 704  0.5-  0.2-    081101 048 (2.6+  0.4-)   090821 704  1.9+  1.3+  
080309 704  0.5-  0.5+    081101 048  1.1+  0.2-    090821 704  1.0+  1.9+  
080309 704  0.5-  0.1-    081101 048  0.9+  0.5+    090821 704 (2.1+  0.9+) 
080309 349  0.3-  0.9-    081101 048  0.9+  0.6+    090821 704  1.0+  1.7+  
080309 349  0.2-  0.7-    081101 048  0.8+  0.6+    090821 704  1.7+  1.3+  
080729 G96 (1.6+  2.2-)   081103 704 (2.2+  2.7-)   090822 H06 (2.2+  1.4+) 
080729 G96 (1.2+  2.2-)   081103 704  0.0   0.7-    090822 H06  0.9+  1.7+  
080729 G96  0.9+  2.0-    081103 704  1.4+  1.6-    090824 900  0.8+  0.0   
080729 300  0.5+  0.7-    081103 704 (0.7+  2.1-)   090824 900 (2.5+  0.5+) 
080729 300  0.1-  0.5-    081103 071  0.3+  0.7+    090826 704  1.7+  1.6+  
080729 300  0.0   0.7-    081103 071  1.0+  0.4+    090826 704  0.9+  1.1+  
080729 300  0.2+  0.6-    081103 071  0.1+  0.7+    090826 704 (1.8+  2.2+) 
080807 349  0.2-  0.4+    081103 071  0.5+  1.1+    090826 704  1.2+  1.5+  
080807 349  0.3-  0.4+    081103 071  0.0   0.8+    090826 704  0.6+  0.3+  
080807 349  0.0   0.4+    081103 071  0.3+  0.9+    090826 J08 (1.3+  2.4+) 
080812 367  0.0   0.8-    081103 071  0.3+  0.7+                            
080812 367  0.3+  0.9-    081103 071  0.7+  0.3+                            

